TimeEDT,TemperatureF,Dew PointF,Humidity,Sea Level PressureIn,VisibilityMPH,Wind Direction,Wind SpeedMPH,Gust SpeedMPH,PrecipitationIn,Events,Conditions,WindDirDegrees,DateUTC
12:35 AM,53.6,50.0,88,30.13,8.0,Calm,Calm,-,0.00,,Clear,0,2013-04-03 04:35:00
12:55 AM,51.8,48.2,88,30.13,8.0,Calm,Calm,-,0.00,,Clear,0,2013-04-03 04:55:00
1:15 AM,51.8,48.2,88,30.12,10.0,Calm,Calm,-,0.00,,Clear,0,2013-04-03 05:15:00
1:35 AM,51.8,48.2,88,30.12,7.0,Calm,Calm,-,0.00,,Clear,0,2013-04-03 05:35:00
1:55 AM,51.8,48.2,88,30.11,8.0,Calm,Calm,-,0.00,,Clear,0,2013-04-03 05:55:00
2:15 AM,51.8,48.2,88,30.10,8.0,Calm,Calm,-,0.00,,Clear,0,2013-04-03 06:15:00
2:35 AM,51.8,48.2,88,30.09,7.0,Calm,Calm,-,0.00,,Clear,0,2013-04-03 06:35:00
2:55 AM,50.0,46.4,87,30.09,8.0,Calm,Calm,-,0.00,,Clear,0,2013-04-03 06:55:00
3:15 AM,48.2,46.4,93,30.09,8.0,Calm,Calm,-,0.00,,Clear,0,2013-04-03 07:15:00
3:35 AM,48.2,46.4,93,30.09,8.0,Calm,Calm,-,0.00,,Clear,0,2013-04-03 07:35:00
3:55 AM,50.0,46.4,87,30.08,8.0,Calm,Calm,-,0.00,,Clear,0,2013-04-03 07:55:00
4:15 AM,50.0,46.4,87,30.09,5.0,Calm,Calm,-,0.00,,Clear,0,2013-04-03 08:15:00
4:35 AM,48.2,46.4,93,30.08,7.0,Calm,Calm,-,0.00,,Clear,0,2013-04-03 08:35:00
4:55 AM,48.2,46.4,93,30.08,8.0,Calm,Calm,-,0.00,,Clear,0,2013-04-03 08:55:00
5:15 AM,48.2,46.4,93,30.08,7.0,Calm,Calm,-,0.00,,Clear,0,2013-04-03 09:15:00
5:35 AM,48.2,46.4,93,30.09,5.0,Calm,Calm,-,0.00,,Clear,0,2013-04-03 09:35:00
5:55 AM,51.8,50.0,94,30.09,8.0,Calm,Calm,-,0.00,,Clear,0,2013-04-03 09:55:00
6:15 AM,48.2,46.4,93,30.10,8.0,Calm,Calm,-,0.00,,Clear,0,2013-04-03 10:15:00
6:35 AM,50.0,46.4,87,30.11,6.0,Calm,Calm,-,0.00,,Clear,0,2013-04-03 10:35:00
6:55 AM,48.2,44.6,87,30.12,6.0,Calm,Calm,-,0.00,,Clear,0,2013-04-03 10:55:00
7:15 AM,48.2,46.4,93,30.13,3.0,Calm,Calm,-,0.00,,Clear,0,2013-04-03 11:15:00
7:35 AM,50.0,46.4,87,30.14,8.0,Calm,Calm,-,0.00,,Clear,0,2013-04-03 11:35:00
7:55 AM,53.6,50.0,88,30.15,5.0,Calm,Calm,-,0.00,,Clear,0,2013-04-03 11:55:00
8:15 AM,55.4,53.6,94,30.16,4.0,WNW,4.6,-,0.00,,Clear,300,2013-04-03 12:15:00
8:35 AM,57.2,53.6,88,30.16,5.0,NNW,11.5,-,0.00,,Clear,340,2013-04-03 12:35:00
8:55 AM,55.4,53.6,94,30.16,4.0,North,9.2,-,0.00,,Clear,350,2013-04-03 12:55:00
9:15 AM,55.4,51.8,88,30.16,4.0,North,11.5,-,0.00,,Scattered Clouds,10,2013-04-03 13:15:00
9:35 AM,55.4,53.6,94,30.16,3.0,North,9.2,-,0.00,,Partly Cloudy,350,2013-04-03 13:35:00
9:55 AM,59.0,51.8,77,30.17,6.0,North,8.1,-,0.00,,Haze,360,2013-04-03 13:55:00
10:15 AM,60.8,51.8,72,30.17,8.0,North,8.1,-,0.00,,Clear,360,2013-04-03 14:15:00
10:35 AM,62.6,51.8,68,30.18,9.0,NNE,11.5,-,0.00,,Clear,20,2013-04-03 14:35:00
10:55 AM,62.6,51.8,68,30.18,10.0,North,12.7,-,0.00,,Clear,10,2013-04-03 14:55:00
11:15 AM,64.4,51.8,64,30.18,10.0,NNE,11.5,-,0.00,,Clear,20,2013-04-03 15:15:00
11:35 AM,66.2,51.8,60,30.19,10.0,NE,9.2,-,0.00,,Clear,40,2013-04-03 15:35:00
11:55 AM,66.2,51.8,60,30.18,10.0,NE,11.5,17.3,0.00,,Clear,50,2013-04-03 15:55:00
12:15 PM,66.2,51.8,60,30.18,10.0,NE,9.2,-,0.00,,Clear,50,2013-04-03 16:15:00
12:35 PM,66.2,53.6,64,30.18,10.0,East,15.0,-,0.00,,Clear,90,2013-04-03 16:35:00
12:55 PM,64.4,53.6,68,30.17,10.0,East,15.0,-,0.00,,Partly Cloudy,80,2013-04-03 16:55:00
1:15 PM,64.4,51.8,64,30.17,10.0,East,18.4,-,0.00,,Partly Cloudy,90,2013-04-03 17:15:00
1:35 PM,64.4,48.2,56,30.17,10.0,ENE,18.4,-,0.00,,Scattered Clouds,70,2013-04-03 17:35:00
1:55 PM,62.6,46.4,55,30.17,10.0,East,20.7,27.6,0.00,,Scattered Clouds,80,2013-04-03 17:55:00
2:15 PM,60.8,46.4,59,30.16,10.0,ENE,20.7,25.3,0.00,,Scattered Clouds,70,2013-04-03 18:15:00
2:35 PM,60.8,46.4,59,30.16,10.0,East,21.9,26.5,0.00,,Scattered Clouds,80,2013-04-03 18:35:00
2:55 PM,60.8,44.6,55,30.17,10.0,ENE,20.7,26.5,0.00,,Partly Cloudy,70,2013-04-03 18:55:00
3:15 PM,59.0,44.6,59,30.17,10.0,ENE,19.6,25.3,0.00,,Partly Cloudy,70,2013-04-03 19:15:00
3:35 PM,59.0,44.6,59,30.17,10.0,ENE,18.4,25.3,0.00,,Mostly Cloudy,70,2013-04-03 19:35:00
3:55 PM,59.0,42.8,55,30.17,10.0,ENE,18.4,27.6,0.00,,Mostly Cloudy,70,2013-04-03 19:55:00
4:15 PM,59.0,42.8,55,30.17,10.0,ENE,17.3,23.0,0.00,,Mostly Cloudy,70,2013-04-03 20:15:00
4:35 PM,59.0,42.8,55,30.18,10.0,ENE,19.6,25.3,0.00,,Scattered Clouds,70,2013-04-03 20:35:00
4:55 PM,59.0,42.8,55,30.17,10.0,ENE,20.7,24.2,0.00,,Mostly Cloudy,70,2013-04-03 20:55:00
5:15 PM,57.2,42.8,59,30.17,10.0,ENE,18.4,23.0,0.00,,Partly Cloudy,70,2013-04-03 21:15:00
5:35 PM,57.2,42.8,59,30.17,10.0,ENE,17.3,-,0.00,,Clear,70,2013-04-03 21:35:00
5:55 PM,57.2,42.8,59,30.17,10.0,ENE,17.3,21.9,0.00,,Clear,60,2013-04-03 21:55:00
6:15 PM,57.2,42.8,59,30.18,10.0,ENE,13.8,-,0.00,,Scattered Clouds,70,2013-04-03 22:15:00
6:35 PM,57.2,42.8,59,30.19,10.0,ENE,15.0,21.9,0.00,,Mostly Cloudy,60,2013-04-03 22:35:00
6:55 PM,57.2,42.8,59,30.19,10.0,ENE,15.0,-,0.00,,Partly Cloudy,60,2013-04-03 22:55:00
7:15 PM,57.2,44.6,63,30.19,10.0,ENE,13.8,-,0.00,,Scattered Clouds,70,2013-04-03 23:15:00
7:35 PM,57.2,42.8,59,30.20,10.0,ENE,10.4,17.3,0.00,,Mostly Cloudy,60,2013-04-03 23:35:00
7:55 PM,57.2,44.6,63,30.20,10.0,ENE,12.7,-,0.00,,Mostly Cloudy,70,2013-04-03 23:55:00
8:15 PM,57.2,44.6,63,30.21,10.0,ENE,11.5,-,0.00,,Scattered Clouds,60,2013-04-04 00:15:00
8:35 PM,57.2,44.6,63,30.21,10.0,ENE,10.4,-,0.00,,Clear,70,2013-04-04 00:35:00
8:55 PM,57.2,44.6,63,30.21,10.0,ENE,11.5,-,0.00,,Clear,60,2013-04-04 00:55:00
9:15 PM,57.2,46.4,67,30.21,10.0,ENE,10.4,-,0.00,,Clear,60,2013-04-04 01:15:00
9:35 PM,57.2,46.4,67,30.22,10.0,ENE,12.7,18.4,0.00,,Clear,60,2013-04-04 01:35:00
9:55 PM,57.2,44.6,63,30.21,10.0,NE,13.8,18.4,0.00,,Clear,50,2013-04-04 01:55:00
10:15 PM,57.2,44.6,63,30.22,10.0,NE,13.8,19.6,0.00,,Clear,50,2013-04-04 02:15:00
10:35 PM,57.2,44.6,63,30.22,10.0,NE,12.7,19.6,0.00,,Clear,50,2013-04-04 02:35:00
10:55 PM,57.2,44.6,63,30.22,10.0,NE,11.5,-,0.00,,Mostly Cloudy,50,2013-04-04 02:55:00
11:15 PM,57.2,44.6,63,30.23,10.0,NE,10.4,18.4,0.00,,Overcast,50,2013-04-04 03:15:00
11:35 PM,57.2,44.6,63,30.23,10.0,NE,9.2,-,0.00,,Partly Cloudy,50,2013-04-04 03:35:00
11:55 PM,55.4,44.6,67,30.25,10.0,NE,9.2,-,0.00,,Light Drizzle,40,2013-04-04 03:55:00